[[{"header":{"parameterUnit":"m.s-1","parameterCategory":1,"la1":30.2991,"la2":30.254,"lo1":-89.0895,"lo2":-89.0444,"dy":0.0017,"dx":0.0017,"nx":28,"ny":28,"refTime":"2024-03-11T21:00:00:Z","depth":0,"parameterNumber":2,"parameterNumberName":"U-component_of_WINDS"},"data":[0,0,0,0,0,0,0,0,0,0,0,0,0,0,0,0,0,0,0,0,0,0,0,0,0,0,0,0,0,0,0,0,0,0,0,0,0,0,0,0,0,0,0,0,0,0,0,0,0,0,0,0,0,0,0,0,0,0,-1.6714,-1.6714,0,-1.6691,-1.6691,-1.669,-1.6642,-1.6641,-1.6641,-1.664,-1.6616,-1.6616,-1.6617,0,0,0,0,0,0,0,0,0,0,0,0,0,-1.672,-1.672,-1.6714,-1.6714,-1.6714,-1.6691,-1.6691,-1.669,-1.6643,-1.6641,-1.664,-1.6639,-1.6616,-1.6616,-1.6617,0,0,0,0,0,0,0,0,0,0,0,0,0,-1.6709,-1.672,-1.6715,-1.6687,-1.6685,-1.6691,-1.6691,-1.669,-1.6643,-1.6641,-1.664,-1.6639,-1.6616,-1.6616,-1.6617,-1.6648,0,0,-1.6618,-1.6618,0,0,0,0,0,0,0,0,-1.671,-1.6709,-1.6692,-1.6689,-1.6686,-1.6668,-1.6684,-1.6676,-1.6643,-1.6659,-1.664,-1.6638,-1.6635,-1.6633,-1.6632,-1.6647,-1.6646,-1.6618,-1.6618,-1.6618,-1.6618,0,0,0,0,0,0,0,-1.671,-1.671,-1.6705,-1.6691,-1.6688,-1.6677,-1.6674,-1.6682,-1.6655,-1.6657,-1.6654,-1.6652,-1.6633,-1.6632,-1.6631,-1.6645,-1.6618,-1.6618,-1.6618,-1.6619,-1.6686,-1.6687,0,0,0,0,0,0,-1.6715,-1.671,-1.6706,-1.6704,-1.6695,-1.6678,-1.6674,-1.6675,-1.6655,-1.665,-1.6653,-1.6649,-1.6632,-1.6631,-1.663,-1.6665,-1.6618,-1.6619,-1.6619,-1.6684,-1.6686,-1.6688,0,0,0,0,0,0,-1.6715,-1.6715,-1.6707,-1.6707,-1.6705,-1.6679,-1.6681,-1.6676,-1.6674,-1.6651,-1.6646,-1.6657,-1.6631,-1.663,-1.6644,-1.6664,-1.6619,-1.6619,-1.6682,-1.6685,-1.6687,-1.6736,0,0,0,0,0,0,-1.6716,-1.6715,-1.6726,-1.6707,-1.6705,-1.672,-1.6682,-1.6676,-1.6675,-1.6671,-1.6654,-1.6649,-1.6629,-1.6644,-1.6644,-1.6663,-1.662,-1.668,-1.6683,-1.6686,-1.6732,-1.6739,-1.6746,0,0,0,0,0,-1.6716,-1.6741,-1.6727,-1.6727,-1.6718,-1.6722,-1.672,-1.6697,-1.6677,-1.6688,-1.6674,-1.665,-1.6662,-1.6646,-1.6646,-1.6665,-1.6679,-1.6682,-1.6686,-1.6729,-1.6738,-1.6745,0,0,0,0,0,0,-1.6763,-1.6738,-1.6722,-1.6742,-1.6734,-1.6714,-1.6726,-1.6707,-1.6705,-1.67,-1.6671,-1.6668,-1.6686,-1.6678,-1.666,-1.6695,-1.6667,-1.6671,-1.67,-1.6708,-1.6714,-1.6715,-1.662,0,0,0,0,0,-1.6775,-1.678,-1.6758,-1.6778,-1.6775,-1.6752,-1.6752,-1.6735,-1.6726,-1.6723,-1.6709,-1.6702,-1.6704,-1.6706,-1.6706,-1.6732,-1.6727,-1.6746,-1.6752,-1.6758,-1.6761,-1.6774,-1.6782,-1.6699,-1.6699,-1.6699,0,0,-1.6801,-1.6788,-1.6793,-1.6787,-1.6779,-1.6785,-1.6749,-1.6757,-1.6761,-1.6724,-1.6736,-1.6727,-1.6717,-1.6737,-1.6745,-1.673,-1.6783,-1.6762,-1.6767,-1.6767,-1.6778,-1.6786,-1.6793,-1.6701,-1.6701,-1.67,0,0,-1.6851,-1.6842,-1.6857,-1.685,-1.6839,-1.6824,-1.6828,-1.6811,-1.6803,-1.6815,-1.6788,-1.6793,-1.6797,-1.6791,-1.6789,-1.684,-1.6818,-1.6841,-1.6875,-1.6888,-1.6895,-1.6901,-1.6918,-1.6925,-1.6845,-1.6845,-1.6845,0,-1.6884,-1.6892,-1.6867,-1.6877,-1.6875,-1.6843,-1.6859,-1.6854,-1.6843,-1.6843,-1.6827,-1.6833,-1.6824,-1.6842,-1.6854,-1.6854,-1.6858,-1.6842,-1.6896,-1.6901,-1.6906,-1.6922,-1.6929,-1.6848,-1.6847,-1.6847,-1.6847,0,-1.6933,-1.6939,-1.6953,-1.6944,-1.6944,-1.6957,-1.6935,-1.6939,-1.6922,-1.6909,-1.6923,-1.6912,-1.6909,-1.6913,-1.6897,-1.693,-1.6921,-1.6901,-1.6871,-1.6917,-1.6932,-1.6938,-1.6852,-1.6851,-1.685,-1.6849,0,0,-1.7008,-1.6988,-1.6993,-1.6989,-1.6976,-1.698,-1.6992,-1.6991,-1.6994,-1.6989,-1.6998,-1.7004,-1.6986,-1.6983,-1.6967,-1.6979,-1.7019,-1.6957,-1.6957,-1.6968,-1.7055,-1.7068,-1.7076,-1.7006,-1.7007,-1.7008,-1.7055,0,-1.7054,-1.7072,-1.7052,-1.7075,-1.708,-1.7051,-1.7062,-1.7055,-1.7044,-1.7048,-1.7036,-1.704,-1.7016,-1.7014,-1.7025,-1.7012,-1.7036,-1.7009,-1.7014,-1.7014,-1.7015,-1.7084,-1.7098,-1.7142,-1.7061,-1.7062,-1.7062,0,-1.7109,-1.7107,-1.713,-1.7116,-1.7118,-1.7127,-1.7125,-1.7129,-1.7122,-1.7113,-1.7111,-1.7092,-1.7104,-1.7077,-1.7093,-1.7075,-1.7076,-1.7071,-1.7072,-1.707,-1.704,-1.7082,-1.7156,-1.7162,-1.7071,-1.7071,-1.707,0,-1.716,-1.7164,-1.7178,-1.7176,-1.716,-1.7168,-1.7162,-1.7153,-1.7154,-1.7153,-1.7153,-1.7153,-1.7153,-1.7154,-1.7135,-1.7118,-1.7154,-1.7125,-1.7146,-1.7147,-1.7153,-1.7152,-1.7227,-1.7157,-1.7157,-1.7157,-1.7157,0,-1.7212,-1.7227,-1.7201,-1.721,-1.7226,-1.7204,-1.7221,-1.7213,-1.7206,-1.7213,-1.7189,-1.7196,-1.7172,-1.7177,-1.7163,-1.7178,-1.7179,-1.7172,-1.7167,-1.7173,-1.7174,-1.7172,-1.7168,-1.7159,-1.7158,-1.7158,-1.7158,0,-1.7271,-1.7254,-1.7268,-1.7253,-1.725,-1.7263,-1.725,-1.7258,-1.7247,-1.7256,-1.7257,-1.7239,-1.7244,-1.7226,-1.7228,-1.7219,-1.7241,-1.7233,-1.7243,-1.724,-1.7261,-1.7259,-1.7336,-1.7345,-1.7271,-1.7272,-1.7272,0,-1.7304,-1.7315,-1.7302,-1.7305,-1.73,-1.7306,-1.7306,-1.7286,-1.7288,-1.7282,-1.7291,-1.7294,-1.7295,-1.7304,-1.7291,-1.7293,-1.7284,-1.7311,-1.7284,-1.7289,-1.7283,-1.7281,-1.7282,-1.7315,-1.7316,-1.7317,-1.7318,0,-1.7364,-1.7356,-1.7358,-1.7358,-1.736,-1.7359,-1.7356,-1.736,-1.7338,-1.7342,-1.7347,-1.7348,-1.7351,-1.7354,-1.7353,-1.7348,-1.7329,-1.7327,-1.7331,-1.7336,-1.7341,-1.7338,-1.7257,-1.7324,-1.7324,-1.7323,-1.7323,-1.7323,-1.741,-1.7419,-1.7411,-1.7415,-1.7411,-1.741,-1.7416,-1.7406,-1.741,-1.741,-1.7399,-1.7406,-1.74,-1.7397,-1.7394,-1.74,-1.7388,-1.7395,-1.7396,-1.7398,-1.7401,-1.7342,-1.74,-1.74,-1.74,-1.74,-1.74,0,-1.7468,-1.7463,-1.7466,-1.7464,-1.7467,-1.745,-1.7447,-1.7451,-1.7457,-1.7454,-1.7455,-1.7462,-1.7465,-1.7454,-1.7456,-1.7463,-1.7455,-1.7464,-1.7463,-1.7462,-1.7413,-1.7408,-1.7471,-1.7471,-1.7471,-1.7471,-1.7471,-1.7471,-1.7499,-1.7512,-1.7504,-1.7516,-1.751,-1.7517,-1.7517,-1.7516,-1.7512,-1.752,-1.7523,-1.7516,-1.751,-1.7511,-1.7515,-1.7511,-1.7513,-1.7525,-1.7519,-1.7472,-1.7465,-1.7458,-1.7454,-1.7526,-1.7526,-1.7567,-1.7567,-1.7568]},{"header":{"parameterUnit":"m.s-1","parameterCategory":1,"la1":30.2991,"la2":30.254,"lo1":-89.0895,"lo2":-89.0444,"dy":0.0017,"dx":0.0017,"nx":28,"ny":28,"refTime":"2024-03-11T21:00:00:Z","depth":0,"parameterNumber":3,"parameterNumberName":"V-component_of_WINDS"},"data":[0,0,0,0,0,0,0,0,0,0,0,0,0,0,0,0,0,0,0,0,0,0,0,0,0,0,0,0,0,0,0,0,0,0,0,0,0,0,0,0,0,0,0,0,0,0,0,0,0,0,0,0,0,0,0,0,0,0,1.4498,1.4499,0,1.4601,1.4602,1.4603,1.4692,1.4693,1.4694,1.4695,1.4802,1.4803,1.4805,0,0,0,0,0,0,0,0,0,0,0,0,0,1.4382,1.4384,1.4498,1.45,1.4501,1.46,1.4602,1.4603,1.4692,1.4693,1.4694,1.4695,1.4801,1.4803,1.4806,0,0,0,0,0,0,0,0,0,0,0,0,0,1.4453,1.4384,1.4498,1.4557,1.4563,1.46,1.4602,1.4604,1.4691,1.4693,1.4694,1.4696,1.48,1.4803,1.4806,1.4793,0,0,1.4815,1.4816,0,0,0,0,0,0,0,0,1.4449,1.4457,1.4547,1.4553,1.456,1.4635,1.46,1.4667,1.4691,1.4643,1.4695,1.4697,1.4745,1.4753,1.4769,1.4798,1.4803,1.4815,1.4817,1.4818,1.4819,0,0,0,0,0,0,0,1.4444,1.4453,1.4539,1.4548,1.4556,1.4579,1.4591,1.4613,1.4684,1.4647,1.4654,1.4665,1.4749,1.4765,1.4772,1.4804,1.4815,1.4817,1.4819,1.482,1.483,1.4829,0,0,0,0,0,0,1.443,1.4449,1.4536,1.4542,1.4507,1.458,1.4593,1.4609,1.4684,1.4697,1.4663,1.4668,1.476,1.4768,1.4776,1.4767,1.4818,1.482,1.4822,1.4832,1.483,1.4828,0,0,0,0,0,0,1.4427,1.4437,1.4532,1.4497,1.4511,1.458,1.4598,1.4611,1.4627,1.4696,1.471,1.4667,1.4761,1.4772,1.4788,1.4772,1.4822,1.4824,1.4833,1.4831,1.4829,1.4748,0,0,0,0,0,0,1.4423,1.4435,1.443,1.4496,1.4512,1.4541,1.4597,1.4612,1.4632,1.4639,1.4703,1.4716,1.4763,1.4784,1.4791,1.4777,1.4827,1.4835,1.4832,1.483,1.4753,1.4744,1.4736,0,0,0,0,0,1.4419,1.4404,1.443,1.444,1.4508,1.454,1.455,1.4604,1.463,1.4627,1.4671,1.4713,1.4772,1.4784,1.4794,1.478,1.4836,1.4833,1.483,1.4757,1.4745,1.4736,0,0,0,0,0,0,1.4335,1.4414,1.4443,1.4449,1.4487,1.4555,1.4553,1.4591,1.4623,1.4629,1.4696,1.471,1.4719,1.4751,1.4764,1.4772,1.481,1.4808,1.4751,1.4741,1.4733,1.4725,1.4829,0,0,0,0,0,1.4317,1.4336,1.4404,1.4403,1.4421,1.4483,1.4499,1.4538,1.458,1.4597,1.4643,1.4683,1.4711,1.4727,1.4757,1.4757,1.4773,1.4752,1.4744,1.4737,1.4735,1.4739,1.473,1.4817,1.4818,1.4818,0,0,1.4281,1.4326,1.4334,1.4387,1.4422,1.444,1.4496,1.4513,1.4528,1.46,1.4619,1.4653,1.4703,1.4711,1.4717,1.4738,1.4714,1.4732,1.4726,1.4729,1.4734,1.4726,1.4719,1.4815,1.4816,1.4816,0,0,1.4225,1.426,1.4264,1.4297,1.4347,1.4389,1.4389,1.4451,1.4477,1.4496,1.455,1.4569,1.4615,1.4648,1.4671,1.4627,1.4668,1.4634,1.4591,1.4593,1.4586,1.4581,1.4566,1.456,1.4632,1.4632,1.4632,0,1.4174,1.4204,1.4261,1.4275,1.4297,1.4362,1.4366,1.4395,1.4453,1.4467,1.4489,1.4548,1.4586,1.4604,1.4593,1.4609,1.4612,1.4628,1.4583,1.4577,1.4573,1.456,1.4554,1.4628,1.4628,1.4628,1.4629,0,1.4139,1.4159,1.4156,1.4209,1.4231,1.424,1.4299,1.4314,1.435,1.439,1.4409,1.4456,1.4496,1.4503,1.4539,1.4526,1.4537,1.457,1.461,1.4559,1.4548,1.4543,1.4621,1.4623,1.4624,1.4625,0,0,1.4035,1.4119,1.4117,1.4142,1.4202,1.4219,1.4231,1.4269,1.4282,1.4319,1.4331,1.4368,1.4399,1.4425,1.4465,1.4467,1.443,1.45,1.4502,1.4486,1.4419,1.4395,1.4389,1.4456,1.4456,1.4455,1.4416,0,1.399,1.4015,1.4066,1.4075,1.4095,1.4156,1.4167,1.4205,1.4242,1.4264,1.4305,1.4331,1.4368,1.4384,1.4389,1.4433,1.4418,1.4437,1.447,1.4471,1.4457,1.4383,1.4357,1.4318,1.4412,1.4411,1.441,0,1.3941,1.3974,1.3984,1.4043,1.4053,1.4062,1.4102,1.4122,1.4167,1.4193,1.4221,1.4265,1.4282,1.4317,1.4342,1.4354,1.437,1.4394,1.4394,1.44,1.4438,1.4388,1.4307,1.4301,1.4404,1.4404,1.4405,0,1.3865,1.3912,1.3925,1.3944,1.4013,1.4017,1.4046,1.4093,1.4112,1.4147,1.4161,1.4197,1.4217,1.4244,1.4297,1.4317,1.4316,1.4355,1.434,1.4338,1.4338,1.4338,1.4259,1.4346,1.4346,1.4346,1.4346,0,1.381,1.3815,1.3892,1.3899,1.3906,1.3965,1.3971,1.4006,1.4046,1.4063,1.4117,1.4132,1.42,1.4222,1.4264,1.4278,1.4287,1.431,1.4321,1.4306,1.4303,1.4319,1.4323,1.4345,1.4345,1.4345,1.4346,0,1.3728,1.3779,1.3797,1.386,1.3876,1.3879,1.3933,1.3944,1.3983,1.4003,1.4011,1.4073,1.4102,1.4157,1.4202,1.423,1.4236,1.4255,1.4221,1.4228,1.421,1.4211,1.414,1.4134,1.4222,1.4222,1.4221,0,1.369,1.3695,1.3758,1.3772,1.3799,1.3822,1.3842,1.39,1.3919,1.397,1.3974,1.4007,1.4037,1.4081,1.4131,1.4166,1.4186,1.4159,1.4192,1.4177,1.4188,1.4187,1.4188,1.4152,1.4151,1.415,1.4149,0,1.3618,1.3643,1.367,1.3705,1.3727,1.3758,1.3792,1.3801,1.3867,1.3886,1.3916,1.3938,1.3984,1.4016,1.4058,1.4089,1.413,1.4137,1.4136,1.4121,1.4102,1.4113,1.4202,1.4139,1.414,1.4141,1.4142,1.4142,1.3558,1.3565,1.3611,1.3639,1.367,1.37,1.3713,1.3753,1.3779,1.382,1.3853,1.388,1.3925,1.3985,1.4014,1.4037,1.4056,1.4053,1.4053,1.4052,1.4046,1.4097,1.4044,1.4045,1.4045,1.4045,1.4045,0,1.349,1.3522,1.3547,1.3592,1.3614,1.3649,1.3688,1.3705,1.3728,1.3766,1.3794,1.3828,1.386,1.3912,1.3948,1.3956,1.3976,1.3964,1.3965,1.3972,1.4026,1.4024,1.3947,1.3947,1.3947,1.3947,1.3948,1.3948,1.3458,1.3472,1.3502,1.3533,1.3565,1.3592,1.3611,1.364,1.367,1.3706,1.3732,1.3765,1.3809,1.3849,1.388,1.3894,1.3906,1.3888,1.3908,1.3958,1.3968,1.3976,1.3975,1.3889,1.3889,1.3852,1.3852,1.3851]}]]